Starlink 4487

operational
NORAD ID: 53531 Int'l Des: 2022-101 Owner: SPXS Country: US Constellation: starlink
LEOCIRCULAR

关于 Starlink 4487

正在加载描述...

实时位置

正在加载3D地球...

即将过境

高度历史

Altitude vs Time

uPlot chart will show altitude changes over time

两行轨道根数

1 53531U 22101E 25304.26916965 .00003185 00000-0 21807-3 0 9999
2 53531 53.2177 295.1094 0001544 97.0900 263.0268 15.08850891176627
Epoch: Oct 31, 2025 • Age: 10 hours

当前状态

高度 539.7 km
速度 7.60 km/s
星下点 16.88°N, 24.75°E
发射日期 Aug 19, 2022
运行时间 3.1 years
类型 internet

技术详情

分类 Payload
质量 300.00 kg
干质量 290.00 kg
总质量 300.00 kg
长度 0.20 m
直径 2.80 m
跨度 9.00 m
形状 Box + pan
制造商 SPXS
平台类型 Starlink
阶段状态 In Orbit
所有者/国家 SPXS/US

大型星座

Loading constellations...